Regional Weather Roundup
Issued by NWS Charleston, WV

Home | Current Version | Previous Version | Graphics & Text | Print | Product List | Glossary On
Versions: 1 2 3 4 5 6 7 8 9 10 11 12 13 14 15 16 17 18 19 20 21 22 23 24 25 26 27 28 29 30 31 32 33 34 35 36 37 38 39 40 41 42 43 44 45 46 47 48 49 50
358
ASUS41 KRLX 261110
RWRRLX
West Virginia Regional Weather Roundup
National Weather Service Charleston WV
700 AM EDT FRI MAY 26 2017

Note: "fair" indicates few or no clouds below 12,000 feet with no
significant weather and/or obstructions to visibility.

WVZ003-261200-
Northern Panhandle of West Virginia

CITY           SKY/WX    TMP DP  RH WIND       PRES   REMARKS
WHEELING       CLOUDY    58  55  90 W10       29.75R
$$

WVZ009-261200-
Northwest West Virginia

CITY           SKY/WX    TMP DP  RH WIND       PRES   REMARKS
PARKERSBURG    MOCLDY    58  55  90 W8        29.85R
$$

WVZ006-261200-
Western West Virginia

CITY           SKY/WX    TMP DP  RH WIND       PRES   REMARKS
HUNTINGTON     CLEAR     55  53  93 SW5       29.89R
$$

WVZ015-261200-
West Central West Virginia

CITY           SKY/WX    TMP DP  RH WIND       PRES   REMARKS
CHARLESTON     MOCLDY    58  53  84 SW10      29.88R
$$

WVZ022-031-261200-
North Central West Virginia

CITY           SKY/WX    TMP DP  RH WIND       PRES   REMARKS
CLARKSBURG     CLOUDY    58  55  90 W10       29.81R
MORGANTOWN     LGT RAIN  58  55  90 SW6       29.78R FOG
$$

WVZ025-035-042-045-261200-
Southern West Virginia

CITY           SKY/WX    TMP DP  RH WIND       PRES   REMARKS
BECKLEY        CLOUDY    54  50  86 W10       29.91R
LOGAN          CLOUDY    57  55  94 W6        29.92R
BLUEFIELD      CLOUDY    54  50  86 W13G31    29.93R
LEWISBURG      CLOUDY    56  49  78 W7G16     29.87R
$$

WVZ047-261200-
Northern Mountains of West Virginia

CITY           SKY/WX    TMP DP  RH WIND       PRES   REMARKS
ELKINS         LGT RAIN  57  51  80 W14G24    29.82R
$$

WVZ052-261200-
Eastern Panhandle of West Virginia

CITY           SKY/WX    TMP DP  RH WIND       PRES   REMARKS
MARTINSBURG    PTSUNNY   60  55  83 S5        29.68R
PETERSBURG     DRIZZLE   60  59  96 S3        29.75R
$$




USA.gov is the U.S. government's official web portal to all federal, state and local government web resources and services.